[[{"header":{"parameterUnit":"m.s-1","parameterCategory":1,"la1":30.2992,"la2":30.254,"lo1":-89.0895,"lo2":-89.0443,"dy":0.0025,"dx":0.0025,"nx":19,"ny":19,"refTime":"2026-05-20T21:00:00:Z","depth":0,"parameterNumber":2,"parameterNumberName":"U-component_of_WINDS"},"data":[0,0,0,-2.5397,-2.5398,-2.5409,-2.5409,-2.5428,-2.5428,0,0,0,0,0,0,0,0,0,0,0,-2.5397,-2.5397,-2.5397,-2.5398,-2.5409,-2.5409,-2.5428,-2.5428,0,0,0,0,0,0,0,0,0,0,0,-2.5397,-2.5397,-2.5398,-2.5398,-2.5409,-2.5409,-2.5428,-2.5418,0,0,0,0,0,0,0,0,0,0,-2.5406,-2.5409,-2.5397,-2.5398,-2.5398,-2.5409,-2.5409,-2.5417,-2.5418,-2.5425,0,-2.5432,0,-2.5431,-2.543,-2.543,0,0,0,-2.5395,-2.5408,-2.5408,-2.5398,-2.5398,-2.5409,-2.5403,-2.5418,-2.5419,-2.5427,-2.5433,-2.5433,-2.5431,-2.543,-2.543,-2.5479,-2.5479,0,0,-2.5394,-2.5401,-2.5407,-2.5409,-2.5408,-2.5403,-2.5403,-2.5419,-2.5425,-2.5433,-2.5434,-2.5431,-2.543,-2.543,-2.5479,-2.5479,0,0,0,-2.5394,-2.54,-2.54,-2.5409,-2.541,-2.5403,-2.5404,-2.5424,-2.5424,-2.5434,-2.5432,-2.543,-2.5431,-2.5478,-2.5479,-2.5501,0,0,0,-2.5394,-2.54,-2.54,-2.5404,-2.541,-2.5417,-2.5409,-2.5423,-2.5424,-2.5432,-2.543,-2.5431,-2.5478,-2.5478,-2.5499,-2.5509,0,0,0,-2.5395,-2.54,-2.5403,-2.5404,-2.5409,-2.5417,-2.5417,-2.5423,-2.5423,-2.543,-2.5431,-2.5478,-2.5478,-2.5498,-2.5507,-2.5522,0,0,0,-2.5398,-2.5423,-2.5404,-2.543,-2.5409,-2.5431,-2.5417,-2.5433,-2.5442,-2.5431,-2.5478,-2.5479,-2.5497,-2.5506,-2.5521,-2.5535,-2.5542,0,0,-2.5432,-2.5427,-2.5442,-2.5426,-2.5452,-2.5429,-2.5459,-2.5461,-2.5457,-2.5472,-2.5473,-2.55,-2.5507,-2.5522,-2.5583,-2.5588,0,0,0,-2.5455,-2.5466,-2.5472,-2.548,-2.5483,-2.5486,-2.5483,-2.5484,-2.5497,-2.5466,-2.551,-2.5515,-2.5523,-2.5529,-2.5534,-2.554,-2.5483,-2.5482,-2.5482,-2.551,-2.5504,-2.5528,-2.5522,-2.5531,-2.5529,-2.5535,-2.5536,-2.5526,-2.5537,-2.554,-2.5578,-2.5586,-2.5589,-2.5596,-2.5549,-2.5549,-2.5549,-2.5549,-2.5558,-2.5571,-2.5559,-2.5578,-2.557,-2.5586,-2.5585,-2.5578,-2.5591,-2.5575,-2.5582,-2.5562,-2.5595,-2.5601,-2.5551,-2.5551,-2.5551,-2.555,-2.555,-2.5591,-2.5596,-2.5598,-2.561,-2.5621,-2.5615,-2.5628,-2.5622,-2.5616,-2.5623,-2.5625,-2.5625,-2.5622,-2.5625,-2.5625,-2.5626,-2.5626,-2.5626,-2.5626,-2.5624,-2.5625,-2.5637,-2.5643,-2.5648,-2.5654,-2.5653,-2.5657,-2.5661,-2.5655,-2.5655,-2.5643,-2.5601,-2.5589,-2.5628,-2.5627,-2.5627,-2.5627,-2.5627,-2.567,-2.5659,-2.5678,-2.5683,-2.5689,-2.57,-2.5692,-2.5702,-2.5706,-2.5712,-2.57,-2.5671,-2.5664,-2.5661,-2.5651,-2.5703,-2.5703,-2.5703,-2.5703,-2.5696,-2.5694,-2.5711,-2.572,-2.5727,-2.5723,-2.5744,-2.5744,-2.5742,-2.5743,-2.5735,-2.5723,-2.5719,-2.5715,-2.571,-2.57,-2.5763,-2.5763,-2.5763,-2.5724,-2.5722,-2.574,-2.5739,-2.5744,-2.5748,-2.5767,-2.5777,-2.5773,-2.5766,-2.5744,-2.5741,-2.572,-2.5714,-2.5703,-2.5696,-2.5678,0,0]},{"header":{"parameterUnit":"m.s-1","parameterCategory":1,"la1":30.2992,"la2":30.254,"lo1":-89.0895,"lo2":-89.0443,"dy":0.0025,"dx":0.0025,"nx":19,"ny":19,"refTime":"2026-05-20T21:00:00:Z","depth":0,"parameterNumber":3,"parameterNumberName":"V-component_of_WINDS"},"data":[0,0,0,2.8082,2.8083,2.8083,2.8083,2.8103,2.8104,0,0,0,0,0,0,0,0,0,0,0,2.8094,2.8094,2.8082,2.8083,2.8083,2.8083,2.8103,2.8104,0,0,0,0,0,0,0,0,0,0,0,2.8093,2.8094,2.8095,2.8083,2.8083,2.8083,2.8103,2.8096,0,0,0,0,0,0,0,0,0,0,2.8092,2.8114,2.8094,2.8095,2.8083,2.8083,2.8083,2.8095,2.8096,2.8111,0,2.8127,0,2.8116,2.8106,2.8106,0,0,0,2.8074,2.8113,2.8102,2.8095,2.8083,2.8083,2.8081,2.8096,2.8097,2.8113,2.8127,2.8128,2.8116,2.8106,2.8107,2.822,2.8221,0,0,2.8074,2.81,2.8102,2.8104,2.8105,2.8081,2.8081,2.8096,2.8114,2.8127,2.8128,2.8117,2.8107,2.8107,2.8219,2.822,0,0,0,2.808,2.8101,2.8089,2.8104,2.8102,2.8081,2.8081,2.8113,2.8107,2.8128,2.8117,2.8107,2.8107,2.8218,2.822,2.8291,0,0,0,2.8079,2.8104,2.809,2.8106,2.8102,2.8108,2.8098,2.8106,2.8107,2.8117,2.8107,2.8108,2.8217,2.8219,2.8287,2.8321,0,0,0,2.809,2.8105,2.8109,2.8107,2.8108,2.8107,2.8102,2.8106,2.8101,2.8106,2.8108,2.8216,2.8219,2.8283,2.8315,2.8359,0,0,0,2.8108,2.8173,2.811,2.8178,2.8109,2.8151,2.8101,2.8131,2.8145,2.8107,2.8217,2.822,2.8282,2.8311,2.8355,2.8401,2.8422,0,0,2.8204,2.8185,2.8222,2.8167,2.8227,2.8149,2.8219,2.8207,2.8183,2.8209,2.8212,2.8288,2.8314,2.8358,2.8532,2.8549,0,0,0,2.8261,2.8289,2.8299,2.8313,2.8304,2.83,2.8274,2.8269,2.829,2.8202,2.8315,2.8329,2.8354,2.8375,2.8389,2.8409,2.823,2.823,2.823,2.8435,2.8401,2.8461,2.8427,2.8441,2.8413,2.8421,2.841,2.8372,2.8399,2.8407,2.8517,2.8542,2.8553,2.8574,2.8428,2.8428,2.8428,2.8429,2.8572,2.8606,2.8553,2.8592,2.8556,2.8589,2.8564,2.8536,2.8561,2.8508,2.8528,2.8474,2.8573,2.8589,2.8434,2.8433,2.8432,2.8432,2.8431,2.8683,2.8693,2.8685,2.8701,2.8717,2.868,2.8706,2.8672,2.8641,2.866,2.8665,2.8664,2.8659,2.8665,2.8665,2.8666,2.8666,2.8666,2.8666,2.8801,2.879,2.8816,2.8812,2.8816,2.8817,2.8788,2.8791,2.8786,2.8759,2.8759,2.8719,2.8589,2.8557,2.8672,2.8671,2.867,2.867,2.8669,2.8954,2.8913,2.8954,2.8958,2.895,2.8968,2.8924,2.8933,2.893,2.8944,2.8899,2.8808,2.8787,2.8775,2.8748,2.8906,2.8906,2.8906,2.8906,2.9048,2.9033,2.9067,2.9075,2.9079,2.9043,2.909,2.9069,2.904,2.9036,2.9008,2.897,2.8959,2.8944,2.8929,2.8903,2.9097,2.9097,2.9098,2.914,2.9124,2.9171,2.9142,2.9133,2.9126,2.9169,2.9181,2.914,2.9105,2.9033,2.9025,2.8963,2.8944,2.8908,2.8885,2.8838,0,0]}]]